Regional Weather Roundup
Issued by NWS

Home | Current Version | Previous Version | Graphics & Text | Print | Product List | Glossary On
Versions: 1 2 3 4 5 6 7 8 9 10 11 12 13 14 15 16 17 18 19 20 21 22 23 24 25 26 27 28 29 30 31 32 33 34 35 36 37 38 39 40 41 42 43 44 45 46 47 48 49 50
000
ASUS43 KLOT 181812
RWRIL

ILLINOIS REGIONAL WEATHER ROUNDUP
NATIONAL WEATHER SERVICE CHICAGO/ROMEOVILLE IL
100 PM CDT SAT APR 18 2015

NOTE: "FAIR" INDICATES FEW OR NO CLOUDS BELOW 12,000 FEET WITH NO
SIGNIFICANT WEATHER AND/OR OBSTRUCTIONS TO VISIBILITY.

* THESE STATIONS ARE NOT UNDER NWS QUALITY CONTROL. THEY ALSO MAY NOT
  REPORT WEATHER SUCH AS PRECIPITATION OR FOG.

ILZ001-002-007-009-015-016-024-181900-
NORTHWEST ILLINOIS

CITY           SKY/WX    TMP DP  RH WIND       PRES   REMARKS
MOLINE         CLOUDY    76  53  44 SE9       29.98F
6HR MIN TEMP:  49; 6HR MAX TEMP:  77;

STERLING*      PTSUNNY   75  45  33 E22G29    30.02F
SAVANNA*       MOSUNNY   76  40  27 E18G25    30.01F
$$

ILZ003-004-008-010-011-017-018-181900-
NORTH CENTRAL ILLINOIS

CITY           SKY/WX    TMP DP  RH WIND       PRES   REMARKS
ROCKFORD       PTSUNNY   67  33  28 E14G22    30.08F
6HR MIN TEMP:  51; 6HR MAX TEMP:  69;

FREEPORT*      MOSUNNY   69  36  30 E17G24    30.07F
ROCHELLE*      PTSUNNY   70  37  30 E14G23    30.06S
DE KALB*       MOSUNNY   68  36  31 E20       30.07F
PERU*          CLOUDY    74  47  39 E17G23    30.02F
$$

ILZ005-006-012>014-019>023-181900-
NORTHEAST ILLINOIS

CITY           SKY/WX    TMP DP  RH WIND       PRES   REMARKS
CHICAGO-OHARE  PTSUNNY   57  38  48 NE16      30.09S
6HR MIN TEMP:  54; 6HR MAX TEMP:  64;

CHICAGO-MIDWAY PTSUNNY   61  40  45 N14       30.08S
6HR MIN TEMP:  56; 6HR MAX TEMP:  68;

AURORA         MOSUNNY   69  39  33 NE16      30.05F
6HR MIN TEMP:  51; 6HR MAX TEMP:  70;

LANSING*       PTSUNNY   54  40  58 NE13      30.08F
JOLIET*        PTSUNNY   70  48  45 NE8       30.06S
WAUKEGAN       MOSUNNY   54  37  52 N13       30.11S
6HR MIN TEMP:  50; 6HR MAX TEMP:  61;

DUPAGE AIRPORT MOSUNNY   66  40  38 NE15      30.06F
6HR MIN TEMP:  51; 6HR MAX TEMP:  67;

KANKAKEE*      CLOUDY    73  52  47 N10       30.04F
WHEELING       MOSUNNY   56  37  49 NE15      30.11F
6HR MIN TEMP:  51; 6HR MAX TEMP:  62;

MORRIS*        PTSUNNY   71  44  38 E9        30.04S
ROMEOVILLE*    PTSUNNY   68  42  38 NE14      30.06F
NORTHERLY ISL    N/A     48  38  68 MISG        N/A
$$

LMZ740>746-181900-
SOUTHERN LAKE MICHIGAN

STATION/POSITION SKY/WX   TEMP    WIND        PRES    VSBY  WAVE
                          AIR SEA DIR/SP/G                  HT/PER
                          (F)     (DEG/KT/KT) (MB)    (MI)  (FT/S)
HARRISON CRIB              42     340/ 21/ 24   N/A
BURNHAM HARBOR             47     340/ 16       N/A
CALUMET HARBOR             47     330/ 15/ 22   N/A
BURNS HARBOR               43     330/  8/ 11 1019.6R
MICHIGAN CITY              44     290/  7/  8   N/A
MICHIGAN CITY 6N           41 46  320/  8/ 12   N/A           1/ 2
$$

ILZ025>027-034>036-040-047-049-050-058-095>099-181900-
WEST-CENTRAL ILLINOIS

CITY           SKY/WX    TMP DP  RH WIND       PRES   REMARKS
QUINCY         CLOUDY    76  55  48 SE18      29.95F
GALESBURG*     CLOUDY    78  55  45 SE7       29.98F
MACOMB*        CLOUDY    76  53  43 SE14G20   30.00F
JACKSONVILLE*  CLOUDY    80  56  44 SE15      29.98F HX  80
PITTSFIELD*    CLOUDY    77  54  44 SE14      29.98F
$$

ILZ028>032-037-038-041>044-048-051>054-059>061-181900-
CENTRAL ILLINOIS

CITY           SKY/WX    TMP DP  RH WIND       PRES   REMARKS
PONTIAC        LGT RAIN  73  60  61 E7        30.03S
BLOOMINGTON    CLOUDY    77  54  44 S6        30.02F
DECATUR        PTSUNNY   77  51  40 SE9       30.01F
PEORIA         CLOUDY    78  55  44 SE12      30.00F
6HR MIN TEMP:  60; 6HR MAX TEMP:  78;

LACON*         CLOUDY    75  55  48 S3        29.99F
LINCOLN*       PTSUNNY   81  48  31 E7G20     29.98F HX  80
SPRINGFIELD    PTSUNNY   77  54  44 S13       30.00F
6HR MIN TEMP:  55; 6HR MAX TEMP:  79;

TAYLORVILLE    PTSUNNY   73  52  46 SE9       30.00F
$$

ILZ033-039-045-046-055>057-062-063-181900-
EAST-CENTRAL ILLINOIS

CITY           SKY/WX    TMP DP  RH WIND       PRES   REMARKS
CHAMPAIGN      PTSUNNY   77  46  33 SE12      30.02F
DANVILLE*      CLOUDY    75  49  39 E7        30.01F
RANTOUL*       PTSUNNY   80  49  32 SE9       30.02F HX  80
MATTOON        LGT RAIN  74  50  42 SE12      30.01F
PARIS*         PTSUNNY   77  49  38 SE7       30.03F
$$

ILZ079-100>102-181900-
SOUTHWEST ILLINOIS

CITY           SKY/WX    TMP DP  RH WIND       PRES   REMARKS
BELLEVILLE     CLOUDY    75  64  69 SE12      29.97F
CAHOKIA*       CLOUDY    74  62  66 SE7       29.97F
SPARTA*        CLOUDY    73  62  67 SE7       29.99F
$$

ILZ064>066-069>071-074>076-080>082-084>086-088>090-092>094-181900-
SOUTH-CENTRAL ILLINOIS

CITY           SKY/WX    TMP DP  RH WIND       PRES   REMARKS
CARBONDALE     CLOUDY    76  59  55 E7        29.97F
6HR MIN TEMP:  56; 6HR MAX TEMP:  76;

CAIRO*         CLOUDY    76  61  58 E6        29.97F
EFFINGHAM*     CLOUDY    75  48  38 E7        30.02F
MARION         PTSUNNY   75  61  60 SE9       29.99F
MT. VERNON     CLOUDY    75  59  57 SE7       30.00F
CENTRALIA*     CLOUDY    78  55  45 E5        29.99F
SALEM*         CLOUDY    76  58  53 E5        30.00F
METROPOLIS*    CLOUDY    77  59  53 SE6       29.97F
$$

ILZ067-068-072-073-078-083-087-091-181900-
SOUTHEAST ILLINOIS

CITY           SKY/WX    TMP DP  RH WIND       PRES   REMARKS
LAWRENCEVILLE  PTSUNNY   77  54  44 E10       30.01F
FLORA*         PTSUNNY   74  57  54 E3        30.01F
FAIRFIELD*     CLOUDY    76  56  48 SE5       29.99F
HARRISBURG*    CLOUDY    76  57  50 E9        30.00F
ROBINSON*      CLOUDY    76  50  40 E7        30.03F
CARMI*         PTSUNNY   77  52  41 SE6       29.99F
$$

ABBREVIATIONS USED IN REMARKS
   TC - TEMPERATURE IN CELSIUS
  WCI - WIND CHILL INDEX
   HX - HEAT INDEX
  VSB - VISIBILITY
$$



USA.gov is the U.S. government's official web portal to all federal, state and local government web resources and services.